[[{"header":{"parameterUnit":"m.s-1","parameterCategory":1,"la1":30.2992,"la2":30.254,"lo1":-89.0895,"lo2":-89.0443,"dy":0.0025,"dx":0.0025,"nx":19,"ny":19,"refTime":"2026-04-01T03:00:00:Z","depth":0,"parameterNumber":2,"parameterNumberName":"U-component_of_WINDS"},"data":[0,0,0,-4.3362,-4.3365,-4.349,-4.3491,-4.366,-4.3661,0,0,0,0,0,0,0,0,0,0,0,-4.333,-4.3332,-4.3362,-4.3365,-4.349,-4.3491,-4.3659,-4.3661,0,0,0,0,0,0,0,0,0,0,0,-4.333,-4.3331,-4.3333,-4.3366,-4.349,-4.3491,-4.3659,-4.3561,0,0,0,0,0,0,0,0,0,0,-4.3438,-4.3414,-4.3331,-4.3333,-4.3367,-4.349,-4.3491,-4.3556,-4.3567,-4.3607,0,-4.3643,0,-4.3655,-4.3673,-4.3674,0,0,0,-4.3361,-4.3405,-4.3434,-4.3333,-4.3368,-4.349,-4.3433,-4.3562,-4.3575,-4.3621,-4.3645,-4.3651,-4.3658,-4.3674,-4.3675,-4.3916,-4.3918,0,0,-4.3354,-4.3356,-4.3426,-4.3442,-4.3424,-4.3429,-4.3437,-4.357,-4.3596,-4.3646,-4.3655,-4.3661,-4.3675,-4.3677,-4.3915,-4.3917,0,0,0,-4.3337,-4.3351,-4.3377,-4.3436,-4.3458,-4.3432,-4.3442,-4.359,-4.3598,-4.3657,-4.3663,-4.3676,-4.3679,-4.3914,-4.3916,-4.3981,0,0,0,-4.3333,-4.3341,-4.3374,-4.3376,-4.3455,-4.3526,-4.3459,-4.3589,-4.3604,-4.3662,-4.3676,-4.368,-4.3912,-4.3915,-4.3976,-4.4011,0,0,0,-4.332,-4.3339,-4.336,-4.3376,-4.343,-4.3523,-4.3539,-4.3592,-4.3608,-4.3674,-4.3681,-4.3911,-4.3914,-4.3972,-4.4004,-4.4074,0,0,0,-4.3307,-4.3416,-4.3361,-4.3485,-4.3429,-4.3564,-4.3538,-4.3639,-4.3703,-4.3677,-4.3912,-4.3915,-4.3971,-4.4,-4.407,-4.4132,-4.4159,0,0,-4.3445,-4.3433,-4.3506,-4.346,-4.3605,-4.3545,-4.37,-4.3757,-4.3762,-4.3865,-4.3871,-4.3978,-4.4004,-4.4073,-4.4312,-4.4333,0,0,0,-4.355,-4.3602,-4.364,-4.3702,-4.3749,-4.3793,-4.3827,-4.3848,-4.3935,-4.3815,-4.4024,-4.4039,-4.408,-4.4109,-4.4127,-4.4162,-4.393,-4.393,-4.3929,-4.3745,-4.3746,-4.3867,-4.3884,-4.3945,-4.3979,-4.4028,-4.4063,-4.4047,-4.4096,-4.4125,-4.427,-4.4305,-4.4319,-4.4355,-4.4161,-4.4161,-4.4161,-4.4161,-4.3945,-4.4018,-4.3996,-4.4104,-4.4105,-4.4196,-4.4235,-4.4221,-4.4305,-4.4248,-4.4284,-4.4219,-4.4342,-4.4373,-4.4166,-4.4166,-4.4165,-4.4164,-4.4164,-4.4071,-4.4106,-4.4132,-4.4222,-4.4292,-4.4306,-4.4389,-4.4388,-4.4387,-4.4423,-4.4453,-4.4452,-4.4449,-4.4438,-4.4439,-4.4439,-4.444,-4.444,-4.444,-4.419,-4.4217,-4.4286,-4.4348,-4.4388,-4.4441,-4.4479,-4.4518,-4.4561,-4.4554,-4.4554,-4.4532,-4.4355,-4.4309,-4.4448,-4.4447,-4.4446,-4.4445,-4.4444,-4.4388,-4.4343,-4.4451,-4.4491,-4.4564,-4.4633,-4.4632,-4.4713,-4.4745,-4.4786,-4.4758,-4.4628,-4.4614,-4.46,-4.4562,-4.4758,-4.4758,-4.4758,-4.4758,-4.4492,-4.4486,-4.4596,-4.4661,-4.4725,-4.4735,-4.4857,-4.4889,-4.4914,-4.4935,-4.4907,-4.4857,-4.4843,-4.4838,-4.4818,-4.4783,-4.5031,-4.5031,-4.5031,-4.4613,-4.4614,-4.4717,-4.4742,-4.4799,-4.4848,-4.4963,-4.5038,-4.5058,-4.5042,-4.495,-4.4939,-4.4859,-4.4833,-4.4811,-4.4781,-4.4715,0,0]},{"header":{"parameterUnit":"m.s-1","parameterCategory":1,"la1":30.2992,"la2":30.254,"lo1":-89.0895,"lo2":-89.0443,"dy":0.0025,"dx":0.0025,"nx":19,"ny":19,"refTime":"2026-04-01T03:00:00:Z","depth":0,"parameterNumber":3,"parameterNumberName":"V-component_of_WINDS"},"data":[0,0,0,3.8246,3.8248,3.8326,3.8326,3.8431,3.8432,0,0,0,0,0,0,0,0,0,0,0,3.8228,3.8229,3.8246,3.8248,3.8326,3.8326,3.8431,3.8432,0,0,0,0,0,0,0,0,0,0,0,3.8228,3.8229,3.823,3.8249,3.8326,3.8326,3.843,3.8369,0,0,0,0,0,0,0,0,0,0,3.8293,3.8281,3.8228,3.823,3.8249,3.8326,3.8326,3.8366,3.8373,3.8399,0,3.8424,0,3.843,3.8439,3.844,0,0,0,3.8244,3.8275,3.8292,3.823,3.825,3.8326,3.829,3.837,3.8378,3.8408,3.8425,3.8429,3.8431,3.844,3.8441,3.8606,3.8607,0,0,3.824,3.8244,3.8287,3.8298,3.8288,3.8287,3.8292,3.8375,3.8393,3.8425,3.8431,3.8433,3.8441,3.8442,3.8605,3.8606,0,0,0,3.823,3.8241,3.8256,3.8294,3.8307,3.8289,3.8295,3.8389,3.8394,3.8432,3.8434,3.8442,3.8443,3.8604,3.8605,3.8659,0,0,0,3.8227,3.8236,3.8254,3.8257,3.8306,3.835,3.8308,3.8388,3.8398,3.8434,3.8442,3.8444,3.8603,3.8605,3.8655,3.8684,0,0,0,3.8221,3.8235,3.8248,3.8258,3.8291,3.8348,3.8357,3.839,3.8399,3.844,3.8444,3.8602,3.8604,3.8652,3.8678,3.873,0,0,0,3.8215,3.8292,3.8249,3.8336,3.8291,3.8381,3.8357,3.8423,3.8464,3.8442,3.8603,3.8605,3.8651,3.8675,3.8726,3.8775,3.8796,0,0,3.8314,3.8304,3.8355,3.8319,3.8419,3.8369,3.8476,3.8508,3.8507,3.8573,3.8576,3.8657,3.8678,3.8729,3.8908,3.8924,0,0,0,3.8388,3.8425,3.845,3.8491,3.852,3.8546,3.8562,3.8575,3.8631,3.8542,3.8688,3.8701,3.8731,3.8754,3.8768,3.8794,3.8616,3.8615,3.8615,3.8534,3.8531,3.8615,3.8622,3.8662,3.868,3.8712,3.8731,3.8713,3.8748,3.8768,3.8877,3.8904,3.8915,3.8942,3.8792,3.8793,3.8793,3.8793,3.868,3.8732,3.8711,3.8786,3.8782,3.8843,3.8863,3.885,3.8906,3.8861,3.8887,3.8839,3.8933,3.8957,3.8797,3.8796,3.8796,3.8795,3.8795,3.8776,3.8801,3.8817,3.8878,3.8925,3.8928,3.8985,3.8978,3.8972,3.8998,3.9019,3.9018,3.9017,3.9008,3.9009,3.9009,3.9009,3.901,3.901,3.887,3.8886,3.8936,3.8975,3.9002,3.9036,3.9056,3.9082,3.9108,3.9099,3.9099,3.9079,3.8943,3.8909,3.9016,3.9015,3.9014,3.9013,3.9013,3.9022,3.8987,3.9064,3.9092,3.9138,3.9186,3.9178,3.9231,3.9251,3.928,3.9255,3.9155,3.9143,3.9132,3.9104,3.9255,3.9255,3.9255,3.9255,3.9104,3.9098,3.9177,3.9222,3.9264,3.9265,3.9352,3.9369,3.938,3.9393,3.937,3.9332,3.9321,3.9316,3.9301,3.9275,3.9465,3.9466,3.9466,3.9198,3.9196,3.9272,3.9285,3.9322,3.9353,3.9436,3.9487,3.9492,3.9474,3.9403,3.9394,3.9333,3.9313,3.9294,3.9271,3.9223,0,0]}]]